{"data":{"norad_id":52139,"intl_designator":"2022-029BD","name":"STARLINK-3730","alt_names":[],"object_type":"PAYLOAD","status":"ACTIVE","operator":null,"country":"US","launch_date":"2022-03-19","launch_site_code":"AFETR","launch_vehicle":null,"mission":null,"orbit_class":"UNKNOWN","rcs_meters":null,"size_class":null,"mass_kg":null,"dimensions":null,"purposes":["comms"],"wikipedia_slug":null,"has_3d_model":false,"image_url":null,"decayed_at":null,"tle_current":{"epoch":"2026-05-25T03:33:38.962368Z","epoch_age_seconds":56195,"freshness":"FRESH","line1":"1 52139U 22029BD  26145.14836762  .00000099  00000+0  24294-4 0  9992","line2":"2 52139  53.2152  95.8858 0001569  86.1134 274.0037 15.08836631232334","mean_motion":15.08836631,"eccentricity":0.0001569,"inclination_deg":53.2152,"raan_deg":95.8858,"arg_perigee_deg":86.1134,"mean_anomaly_deg":274.0037,"bstar":2.4294e-5,"rev_number":23233,"period_min":95.437767775138,"perigee_km":538.66826961974,"apogee_km":540.83910371721,"semimajor_km":6917.8906866685,"source":"CELESTRAK","updated_at":"2026-05-25T13:38:17.079261Z"}}}